This is the latest recevied weather packets stored in our database for station/object K6GMW. If no packets are shown the sender has not sent any weather packets the latest 10 day(s).
| Time | Temp. | Humidity | Pressure | Rain* | Wind** | Luminosity | Snow |
|---|---|---|---|---|---|---|---|
| 1778178967 | 20.56° C | 62% | 1018.4 hPa | 0 mm | - | 633 W/m² | - |
| 1778178663 | 20.56° C | 59% | 1018.3 hPa | 0 mm | - | 688 W/m² | - |
| 1778178360 | 20.56° C | 60% | 1018.3 hPa | 0 mm | - | 586 W/m² | - |
| 1778178055 | 20.56° C | 60% | 1018.5 hPa | 0 mm | - | 729 W/m² | - |
| 1778177753 | 21.11° C | 61% | 1018.4 hPa | 0 mm | - | 550 W/m² | - |
| 1778177449 | 20.56° C | 60% | 1018.5 hPa | 0 mm | - | 447 W/m² | - |
| 1778177146 | 20.56° C | 60% | 1018.5 hPa | 0 mm | - | 739 W/m² | - |
| 1778176843 | 20.56° C | 60% | 1018.4 hPa | 0 mm | - | 643 W/m² | - |
| 1778176538 | 20.56° C | 58% | 1018.4 hPa | 0 mm | - | 646 W/m² | - |
| 1778176237 | 20.56° C | 59% | 1018.5 hPa | 0 mm | - | 692 W/m² | - |
| 1778175933 | 20.56° C | 58% | 1018.6 hPa | 0 mm | - | 879 W/m² | - |
| 1778175631 | 20° C | 60% | 1019.1 hPa | 0 mm | - | 424 W/m² | - |
| 1778175328 | 20.56° C | 58% | 1019.4 hPa | 0 mm | - | 1174 W/m² | - |
| 1778175025 | 20.56° C | 59% | 1019.4 hPa | 0 mm | - | 1099 W/m² | - |
| 1778174721 | 20.56° C | 59% | 1019.4 hPa | 0 mm | - | 1030 W/m² | - |
| 1778174418 | 20° C | 62% | 1019.7 hPa | 0 mm | - | 791 W/m² | - |
| 1778174113 | 20.56° C | 59% | 1019.8 hPa | 0 mm | - | 693 W/m² | - |
| 1778173811 | 20° C | 60% | 1019.7 hPa | 0 mm | - | 712 W/m² | - |
| 1778173507 | 20° C | 61% | 1019.8 hPa | 0 mm | - | 1102 W/m² | - |
| 1778173204 | 20.56° C | 60% | 1020 hPa | 0 mm | - | 949 W/m² | - |
| 1778172900 | 20° C | 61% | 1020 hPa | 0 mm | - | 1020 W/m² | - |
| 1778172596 | 20.56° C | 58% | 1020 hPa | 0 mm | - | 983 W/m² | - |
| 1778172293 | 20° C | 60% | 1020 hPa | 0 mm | - | 953 W/m² | - |
| 1778171990 | 19.44° C | 59% | 1020.1 hPa | 0 mm | - | 881 W/m² | - |
| 1778171687 | 19.44° C | 61% | 1020.2 hPa | 0 mm | - | 979 W/m² | - |
* Rain latest hour (hover to see other rain measurements)
** Current wind speed in m/s (hover to see current wind gust speed)